Location: Unspecified
(0.0000°N, 0.0000°E)
Time: 22:32:36
(UTC+00:00)

Tiros 1 - All Passes

Search period start: 30 August 2015 00:00
Search period end: 09 September 2015 00:00
Orbit: 631 x 666 km, 48.4° (Epoch: 29 August)

Date Brightness Start Highest point End Pass type
(mag) Time Alt. Az. Time Alt. Az. Time Alt. Az.
30 Aug - 09:24:30 10° NW 09:29:17 83° SW 09:34:01 10° SE daylight
30 Aug - 19:57:51 10° SSE 20:00:13 14° SE 20:02:50 10° E night (unlit)
30 Aug - 21:37:59 10° WSW 21:42:25 44° NW 21:46:53 10° NNE night (unlit)
31 Aug - 08:09:42 10° N 08:13:39 26° NE 08:17:39 10° ESE daylight
31 Aug - 09:51:52 10° WNW 09:55:48 24° SW 09:59:36 10° S daylight
31 Aug - 20:22:23 10° SSW 20:26:51 46° SE 20:31:20 10° NE visible
31 Aug - 22:06:39 10° W 22:09:04 13° NW 22:11:15 10° NNW night (unlit)
01 Sep - 08:35:22 10° NW 08:40:10 88° NE 08:44:55 10° SE daylight
01 Sep - 19:09:09 10° SSE 19:11:06 13° SE 19:13:17 10° ESE visible
01 Sep - 20:48:49 10° SW 20:53:19 48° NW 20:57:49 10° NNE visible
02 Sep - 07:20:43 10° N 07:24:30 24° NE 07:28:23 10° ESE daylight
02 Sep - 09:02:35 10° WNW 09:06:40 27° SW 09:10:39 10° S daylight
02 Sep - 19:33:22 10° SSW 19:37:43 41° SE 19:42:08 10° ENE visible
02 Sep - 21:17:11 10° W 21:19:55 15° NW 21:22:28 10° NNW night (unlit)
03 Sep - 07:46:15 10° NW 07:51:02 80° NE 07:55:48 10° SE daylight
03 Sep - 18:20:36 10° SSE 18:21:57 11° SE 18:23:36 10° ESE visible
03 Sep - 19:59:40 10° SW 20:04:12 54° NW 20:08:44 10° NNE visible
04 Sep - 06:31:45 10° N 06:35:21 22° NE 06:39:05 10° E daylight
04 Sep - 08:13:19 10° WNW 08:17:32 30° SW 08:21:40 10° S daylight
04 Sep - 18:44:21 10° SSW 18:48:37 37° SE 18:52:56 10° ENE visible
04 Sep - 20:27:47 10° W 20:30:48 16° NW 20:33:37 10° N visible
05 Sep - 06:57:08 10° NNW 07:01:54 72° NE 07:06:40 10° SE daylight
05 Sep - 17:32:33 10° SE 17:32:49 10° SE 17:33:23 10° SE daylight
05 Sep - 19:10:31 10° SW 19:15:05 61° NW 19:19:40 10° NNE visible
06 Sep - 05:42:49 10° N 05:46:13 20° NE 05:49:45 10° E daylight
06 Sep - 07:24:03 10° WNW 07:28:24 33° SW 07:32:40 10° SSE daylight
06 Sep - 17:55:21 10° SSW 17:59:30 33° SE 18:03:42 10° ENE daylight
06 Sep - 19:38:25 10° W 19:41:39 18° NW 19:44:45 10° N visible
07 Sep - 06:08:01 10° NNW 06:12:46 64° NE 06:17:31 10° SE daylight
07 Sep - 07:54:12 10° WSW 07:55:05 10° SW 07:55:39 10° SW daylight
07 Sep - 18:21:23 10° SW 18:25:58 68° NW 18:30:34 10° NNE visible
08 Sep - 04:53:54 10° N 04:57:03 18° NE 05:00:23 10° E visible
08 Sep - 06:34:48 10° WNW 06:39:15 37° SW 06:43:39 10° SSE daylight
08 Sep - 17:06:20 10° S 17:10:23 30° SE 17:14:28 10° ENE daylight
08 Sep - 18:49:05 10° W 18:52:31 20° NW 18:55:50 10° N visible
